Time,TemperatureF,DewpointF,PressureIn,WindDirection,WindDirectionDegrees,WindSpeedMPH,WindSpeedGustMPH,Humidity,HourlyPrecipIn,Conditions,Clouds,dailyrainin,SoftwareType,DateUTC
2014-10-24 00:23:00,44.0,42.0,-100.00,South,180,0.0,2.0,93,0.00,,,-99.99,,2014-10-24 04:23:00,
2014-10-24 00:53:00,44.0,42.0,-100.00,West,270,0.0,2.0,94,0.00,,,-99.99,,2014-10-24 04:53:00,
2014-10-24 01:22:00,43.0,42.0,-100.00,WSW,240,0.0,0.0,94,0.00,,,-99.99,,2014-10-24 05:22:00,
2014-10-24 01:52:00,43.0,41.0,-100.00,WSW,240,0.0,0.0,94,0.00,,,-99.99,,2014-10-24 05:52:00,
2014-10-24 02:22:00,42.0,41.0,-100.00,South,190,0.0,1.0,95,0.00,,,-99.99,,2014-10-24 06:22:00,
2014-10-24 02:52:00,42.0,41.0,-100.00,SSW,200,0.0,3.0,94,0.00,,,-99.99,,2014-10-24 06:52:00,
2014-10-24 03:22:00,42.0,40.0,-100.00,SSW,210,0.0,3.0,94,0.00,,,-99.99,,2014-10-24 07:22:00,
2014-10-24 03:52:00,41.0,40.0,-100.00,SSW,200,1.0,2.0,94,0.00,,,-99.99,,2014-10-24 07:52:00,
2014-10-24 04:22:00,41.0,40.0,-100.00,SSW,200,0.0,2.0,95,0.00,,,-99.99,,2014-10-24 08:22:00,
2014-10-24 04:52:00,41.0,40.0,-100.00,WNW,290,0.0,1.0,95,0.00,,,-99.99,,2014-10-24 08:52:00,
2014-10-24 05:22:00,41.0,40.0,-100.00,SSW,200,0.0,3.0,94,0.00,,,-99.99,,2014-10-24 09:22:00,
2014-10-24 05:54:00,42.0,40.0,-100.00,West,270,1.0,2.0,93,0.00,,,-99.99,,2014-10-24 09:54:00,
2014-10-24 06:23:00,41.0,40.0,-100.00,WNW,285,1.0,3.0,94,0.00,,,-99.99,,2014-10-24 10:23:00,
2014-10-24 06:53:00,42.0,40.0,-100.00,SW,220,2.0,8.0,92,0.00,,,-99.99,,2014-10-24 10:53:00,
2014-10-24 07:23:00,42.0,40.0,-100.00,East,90,1.0,4.0,91,0.00,,,-99.99,,2014-10-24 11:23:00,
2014-10-24 07:52:00,42.0,40.0,-100.00,WSW,245,1.0,5.0,93,0.00,,,-99.99,,2014-10-24 11:52:00,
2014-10-24 08:22:00,43.0,40.0,-100.00,SW,230,1.0,6.0,91,0.00,,,-99.99,,2014-10-24 12:22:00,
2014-10-24 08:52:00,42.0,40.0,-100.00,North,0,2.0,10.0,92,0.00,,,-99.99,,2014-10-24 12:52:00,
2014-10-24 09:22:00,42.0,40.0,-100.00,North,0,3.0,8.0,92,0.00,,,-99.99,,2014-10-24 13:22:00,
2014-10-24 09:52:00,43.0,40.0,-100.00,SSW,195,0.0,7.0,92,0.00,,,-99.99,,2014-10-24 13:52:00,
2014-10-24 10:22:00,47.0,43.0,-100.00,WNW,295,1.0,7.0,84,0.00,,,-99.99,,2014-10-24 14:22:00,
2014-10-24 10:52:00,51.0,44.0,-100.00,SW,230,4.0,6.0,77,0.00,,,-99.99,,2014-10-24 14:52:00,
2014-10-24 11:22:00,54.0,45.0,-100.00,NNE,25,1.0,5.0,71,0.00,,,-99.99,,2014-10-24 15:22:00,
2014-10-24 11:53:00,58.0,45.0,-100.00,North,0,1.0,5.0,62,0.00,,,-99.99,,2014-10-24 15:53:00,
2014-10-24 12:23:00,60.0,43.0,-100.00,SSW,200,2.0,9.0,52,0.00,,,-99.99,,2014-10-24 16:23:00,
2014-10-24 12:53:00,62.0,42.0,-100.00,SW,220,3.0,6.0,49,0.00,,,-99.99,,2014-10-24 16:53:00,
2014-10-24 13:23:00,63.0,42.0,-100.00,SW,220,3.0,8.0,47,0.00,,,-99.99,,2014-10-24 17:23:00,
2014-10-24 13:53:00,64.0,42.0,-100.00,NE,45,2.0,8.0,45,0.00,,,-99.99,,2014-10-24 17:53:00,
2014-10-24 14:22:00,65.0,42.0,-100.00,North,355,1.0,6.0,43,0.00,,,-99.99,,2014-10-24 18:22:00,
2014-10-24 14:52:00,66.0,42.0,-100.00,SW,220,2.0,9.0,41,0.00,,,-99.99,,2014-10-24 18:52:00,
2014-10-24 15:22:00,66.0,40.0,-100.00,NNE,15,3.0,11.0,39,0.00,,,-99.99,,2014-10-24 19:22:00,
2014-10-24 15:52:00,67.0,39.0,-100.00,SE,130,2.0,9.0,35,0.00,,,-99.99,,2014-10-24 19:52:00,
2014-10-24 16:22:00,67.0,38.0,-100.00,NNE,20,2.0,6.0,34,0.00,,,-99.99,,2014-10-24 20:22:00,
2014-10-24 16:52:00,67.0,37.0,-100.00,North,0,2.0,7.0,33,0.00,,,-99.99,,2014-10-24 20:52:00,
2014-10-24 17:22:00,67.0,36.0,-100.00,SSE,165,2.0,9.0,32,0.00,,,-99.99,,2014-10-24 21:22:00,
2014-10-24 17:54:00,66.0,37.0,-100.00,North,0,2.0,7.0,33,0.00,,,-99.99,,2014-10-24 21:54:00,
2014-10-24 18:23:00,66.0,37.0,-100.00,North,0,1.0,7.0,34,0.00,,,-99.99,,2014-10-24 22:23:00,
2014-10-24 18:52:00,64.0,38.0,-100.00,SSW,205,4.0,6.0,38,0.00,,,-99.99,,2014-10-24 22:52:00,
2014-10-24 19:22:00,60.0,40.0,-100.00,SW,220,4.0,8.0,48,0.00,,,-99.99,,2014-10-24 23:22:00,
2014-10-24 19:53:00,57.0,41.0,-100.00,SSW,200,2.0,7.0,54,0.00,,,-99.99,,2014-10-24 23:53:00,
2014-10-24 20:22:00,55.0,41.0,-100.00,SSW,210,3.0,6.0,59,0.00,,,-99.99,,2014-10-25 00:22:00,
2014-10-24 20:52:00,53.0,43.0,-100.00,West,265,1.0,5.0,69,0.00,,,-99.99,,2014-10-25 00:52:00,